NOAA 16 DEB, 41084

Orbit data source: Space-Track

NOAA 16 DEB, 41084 is space debris in SSO originally from a launch on Thu, 21 Sep 2000 UTC launched from the Air Force Western Test Range (AFWTR). Debris objects in space refer to the collection of defunct objects orbiting the Earth. Examples of debris include non-operational satellites, rocket bodies, and fragments generated from explosions, collisions, or faulty payload assembly.

Loading next visibility...
Identifier
41084, 2000-055AT
Orbit
SSO
Country
Flag of USUS
Related business
Manufacturer
Unknown
Mission
Spacecraft
Bus & Motor
Unknown
Mass
Unknown
Launch date (UTC)
2000-09-21 (26 years ago)
Launch vehicle
Unknown
Launch site
Air Force Western Test Range (AFWTR)
Object type
Payload
Rocket body
Debris
Shape & HBR
Unknown shape, 0.1 m
Radar Cross Section
Medium (>0.1 m² and <1 m²)

Expand to show TLE details & history
Last TLE update: 6 hours ago

TLE from 6 hours ago
0 NOAA 16 DEB
1 41084U 00055AT  26165.20891579  .00001079  00000-0  49147-3 0  9993
2 41084  98.6933 251.8286 0015143 225.1806 134.8143 14.23672352545741
Epoch: 2026-06-14T05:00Z
TLE epoch observation values (Epoch: 2026-06-14T05:00:50.324Z)
Latitude
0.00004°
Longitude
-85.89403°
Altitude
823.565 km
Speed
7.437 km/s
True Right ascension
16h 47m 18s
True Declination
0° 00' 00"
Sunlit
Object was in full shadow at epoch
Visualization orbit readout
Latitude
Unknown
Longitude
Unknown
Altitude
Unknown
Speed
Unknown
Apparent Right ascension
Unknown
Apparent Declination
Unknown
Sunlit
N/A
Visualization observer readout
Local Sidereal Time
21:30:54
Azimuth
Unknown
Elevation
Unknown
Doppler factor
Unknown
Orbital elements
Apogee altitude
820.998 km
Perigee altitude
799.228 km
Semi-major axis
7,188.25 km
Eccentricity
0.00151
Inclination
98.6933°
RAAN
251.8286°
Arg. of periapsis
225.1806°
True anomaly
134.93723°
Mean anomaly
134.8143°
Eccentric anomaly
134.87578°
Mean motion
3.5613 °/min
Orbital period
101.09 mins
BSTAR
0.00049147
Loading maneuver chart data...
Computing Atmospheric mass density...
Loading historical data...
Loading historical data...
Loading historical data...
Loading historical data...
Loading historical data...
Loading historical data...
Loading historical data...

Documentation

Showing up to 5 results
|